Time,TemperatureF,DewpointF,PressureIn,WindDirection,WindDirectionDegrees,WindSpeedMPH,WindSpeedGustMPH,Humidity,HourlyPrecipIn,Conditions,Clouds,dailyrainin,SoftwareType,DateUTC
2013-08-14 00:12:00,74.0,72.0,29.93,SSE,157,1.0,3.0,92,0.00,,,0.00,,2013-08-14 05:12:00,
2013-08-14 00:22:00,74.0,72.0,29.93,SSE,157,1.0,3.0,93,0.00,,,0.00,,2013-08-14 05:22:00,
2013-08-14 00:42:00,73.0,71.0,29.93,SSE,157,0.0,3.0,93,0.00,,,0.00,,2013-08-14 05:42:00,
2013-08-14 00:51:00,73.0,71.0,29.92,SSE,157,0.0,3.0,93,0.00,,,0.00,,2013-08-14 05:51:00,
2013-08-14 01:11:00,73.0,71.0,29.93,SSE,157,1.0,3.0,93,0.00,,,0.00,,2013-08-14 06:11:00,
2013-08-14 01:21:00,73.0,71.0,29.93,SSE,158,1.0,3.0,93,0.00,,,0.00,,2013-08-14 06:21:00,
2013-08-14 01:42:00,73.0,71.0,29.93,SW,234,3.0,5.0,93,0.00,,,0.00,,2013-08-14 06:42:00,
2013-08-14 01:52:00,73.0,71.0,29.93,WSW,257,2.0,5.0,93,0.00,,,0.00,,2013-08-14 06:52:00,
2013-08-14 02:11:00,73.0,71.0,29.93,WNW,283,2.0,3.0,92,0.00,,,0.00,,2013-08-14 07:11:00,
2013-08-14 02:21:00,73.0,71.0,29.93,WSW,239,1.0,3.0,92,0.00,,,0.00,,2013-08-14 07:21:00,
2013-08-14 02:42:00,73.0,71.0,29.93,SW,235,1.0,4.0,92,0.00,,,0.00,,2013-08-14 07:42:00,
2013-08-14 02:52:00,73.0,71.0,29.93,WSW,237,1.0,4.0,92,0.00,,,0.00,,2013-08-14 07:52:00,
2013-08-14 03:11:00,72.0,70.0,29.93,SW,232,1.0,3.0,92,0.00,,,0.00,,2013-08-14 08:11:00,
2013-08-14 03:21:00,72.0,70.0,29.93,SW,232,0.0,3.0,93,0.00,,,0.00,,2013-08-14 08:21:00,
2013-08-14 03:42:00,72.0,70.0,29.93,SSW,208,2.0,4.0,93,0.00,,,0.00,,2013-08-14 08:42:00,
2013-08-14 03:52:00,72.0,70.0,29.93,SW,219,1.0,3.0,94,0.00,,,0.00,,2013-08-14 08:52:00,
2013-08-14 04:11:00,72.0,70.0,29.93,SW,219,0.0,3.0,94,0.00,,,0.00,,2013-08-14 09:11:00,
2013-08-14 04:21:00,72.0,70.0,29.92,SW,219,0.0,1.0,94,0.00,,,0.00,,2013-08-14 09:21:00,
2013-08-14 04:43:00,72.0,70.0,29.92,SW,219,0.0,1.0,94,0.00,,,0.00,,2013-08-14 09:43:00,
2013-08-14 04:53:00,72.0,70.0,29.92,SW,219,0.0,2.0,95,0.00,,,0.00,,2013-08-14 09:53:00,
2013-08-14 05:12:00,72.0,70.0,29.93,SW,219,0.0,0.0,95,0.00,,,0.00,,2013-08-14 10:12:00,
2013-08-14 05:23:00,72.0,70.0,29.93,SW,219,1.0,2.0,95,0.00,,,0.00,,2013-08-14 10:23:00,
2013-08-14 05:42:00,73.0,71.0,29.93,NW,307,2.0,5.0,95,0.00,,,0.00,,2013-08-14 10:42:00,
2013-08-14 05:52:00,73.0,71.0,29.93,SW,216,3.0,4.0,95,0.00,,,0.00,,2013-08-14 10:52:00,
2013-08-14 06:11:00,73.0,71.0,29.93,South,182,0.0,1.0,95,0.00,,,0.00,,2013-08-14 11:11:00,
2013-08-14 06:21:00,73.0,71.0,29.93,South,182,0.0,2.0,95,0.00,,,0.00,,2013-08-14 11:21:00,
2013-08-14 06:42:00,73.0,71.0,29.93,West,276,2.0,4.0,95,0.00,,,0.00,,2013-08-14 11:42:00,
2013-08-14 06:52:00,73.0,71.0,29.93,West,279,2.0,5.0,95,0.01,,,0.01,,2013-08-14 11:52:00,
2013-08-14 07:11:00,73.0,71.0,29.92,NNW,342,5.0,8.0,95,0.01,,,0.01,,2013-08-14 12:11:00,
2013-08-14 07:21:00,73.0,71.0,29.92,North,349,5.0,8.0,95,0.01,,,0.01,,2013-08-14 12:21:00,
2013-08-14 07:42:00,74.0,72.0,29.93,North,355,6.0,8.0,95,0.01,,,0.01,,2013-08-14 12:42:00,
2013-08-14 07:52:00,74.0,72.0,29.94,North,350,7.0,10.0,95,0.00,,,0.01,,2013-08-14 12:52:00,
2013-08-14 08:11:00,74.0,72.0,29.94,North,5,10.0,13.0,95,0.00,,,0.01,,2013-08-14 13:11:00,
2013-08-14 08:22:00,75.0,73.0,29.95,NNE,13,9.0,12.0,95,0.00,,,0.01,,2013-08-14 13:22:00,
2013-08-14 08:52:00,75.0,73.0,29.95,NNE,19,8.0,12.0,93,0.00,,,0.01,,2013-08-14 13:52:00,
2013-08-14 09:11:00,75.0,73.0,29.95,NNE,17,8.0,13.0,92,0.00,,,0.01,,2013-08-14 14:11:00,
2013-08-14 09:21:00,76.0,73.0,29.96,NNE,26,11.0,14.0,90,0.00,,,0.01,,2013-08-14 14:21:00,
2013-08-14 09:42:00,76.0,73.0,29.96,NE,35,10.0,14.0,90,0.00,,,0.01,,2013-08-14 14:42:00,
2013-08-14 09:52:00,76.0,72.0,29.96,NE,36,12.0,18.0,88,0.00,,,0.01,,2013-08-14 14:52:00,
2013-08-14 10:11:00,77.0,73.0,29.97,NE,37,13.0,18.0,87,0.00,,,0.01,,2013-08-14 15:11:00,
2013-08-14 10:22:00,78.0,73.0,29.97,NE,41,12.0,17.0,85,0.00,,,0.01,,2013-08-14 15:22:00,
2013-08-14 10:43:00,79.0,73.0,29.97,NNE,32,9.0,17.0,83,0.00,,,0.01,,2013-08-14 15:43:00,
2013-08-14 10:56:00,80.0,74.0,29.96,NE,46,9.0,13.0,81,0.00,,,0.01,,2013-08-14 15:56:00,
2013-08-14 11:13:00,81.0,73.0,29.97,NNE,14,8.0,15.0,77,0.00,,,0.01,,2013-08-14 16:13:00,
2013-08-14 11:27:00,82.0,74.0,29.97,NNE,25,6.0,14.0,76,0.00,,,0.01,,2013-08-14 16:27:00,
2013-08-14 11:43:00,81.0,73.0,29.98,ENE,59,8.0,12.0,76,0.00,,,0.01,,2013-08-14 16:43:00,
2013-08-14 11:59:00,82.0,72.0,29.98,NNE,19,11.0,16.0,73,0.00,,,0.01,,2013-08-14 16:59:00,
2013-08-14 12:20:00,81.0,72.0,29.98,NE,39,8.0,13.0,73,0.00,,,0.01,,2013-08-14 17:20:00,
2013-08-14 12:29:00,82.0,72.0,29.98,NNE,32,10.0,14.0,72,0.00,,,0.01,,2013-08-14 17:29:00,
2013-08-14 12:44:00,82.0,72.0,29.98,NNE,17,9.0,14.0,71,0.00,,,0.01,,2013-08-14 17:44:00,
2013-08-14 12:55:00,83.0,71.0,29.97,NNE,22,10.0,17.0,68,0.00,,,0.01,,2013-08-14 17:55:00,
2013-08-14 13:34:00,83.0,72.0,29.97,NE,35,12.0,19.0,69,0.00,,,0.01,,2013-08-14 18:34:00,
2013-08-14 13:56:00,82.0,71.0,29.97,NNE,15,14.0,19.0,70,0.00,,,0.01,,2013-08-14 18:56:00,
2013-08-14 14:13:00,82.0,71.0,29.97,North,11,14.0,19.0,70,0.00,,,0.01,,2013-08-14 19:13:00,
2013-08-14 14:42:00,83.0,71.0,29.96,NNE,32,13.0,19.0,67,0.00,,,0.01,,2013-08-14 19:42:00,
2013-08-14 14:54:00,84.0,71.0,29.96,NNE,24,12.0,20.0,66,0.00,,,0.01,,2013-08-14 19:54:00,
2013-08-14 15:12:00,84.0,71.0,29.96,North,355,13.0,18.0,66,0.00,,,0.01,,2013-08-14 20:12:00,
2013-08-14 15:49:00,85.0,70.0,29.95,North,5,11.0,21.0,61,0.00,,,0.01,,2013-08-14 20:49:00,
2013-08-14 16:13:00,85.0,70.0,29.94,NNE,13,13.0,25.0,60,0.00,,,0.01,,2013-08-14 21:13:00,
2013-08-14 16:24:00,85.0,70.0,29.93,NE,36,9.0,17.0,60,0.00,,,0.01,,2013-08-14 21:24:00,
2013-08-14 16:45:00,86.0,70.0,29.93,NNE,30,10.0,18.0,60,0.00,,,0.01,,2013-08-14 21:45:00,
2013-08-14 16:55:00,85.0,69.0,29.93,NNE,15,11.0,19.0,58,0.00,,,0.01,,2013-08-14 21:55:00,
2013-08-14 17:13:00,85.0,69.0,29.93,NNE,20,10.0,18.0,59,0.00,,,0.01,,2013-08-14 22:13:00,
2013-08-14 17:23:00,85.0,69.0,29.93,North,5,9.0,16.0,59,0.00,,,0.01,,2013-08-14 22:23:00,
2013-08-14 17:54:00,85.0,68.0,29.93,NE,47,10.0,15.0,57,0.00,,,0.01,,2013-08-14 22:54:00,
2013-08-14 18:13:00,84.0,67.0,29.94,NNE,28,11.0,17.0,57,0.00,,,0.01,,2013-08-14 23:13:00,
2013-08-14 18:25:00,83.0,68.0,29.94,NE,37,8.0,12.0,60,0.00,,,0.01,,2013-08-14 23:25:00,
2013-08-14 18:46:00,83.0,68.0,29.93,NE,42,10.0,17.0,60,0.00,,,0.01,,2013-08-14 23:46:00,
2013-08-14 18:56:00,83.0,68.0,29.93,NNE,17,10.0,18.0,61,0.00,,,0.01,,2013-08-14 23:56:00,
2013-08-14 19:12:00,82.0,68.0,29.93,NE,37,7.0,11.0,62,0.00,,,0.01,,2013-08-15 00:12:00,
2013-08-14 19:23:00,82.0,68.0,29.93,NNE,28,9.0,14.0,63,0.00,,,0.01,,2013-08-15 00:23:00,
2013-08-14 19:43:00,81.0,68.0,29.93,North,5,9.0,14.0,65,0.00,,,0.01,,2013-08-15 00:43:00,
2013-08-14 19:52:00,80.0,68.0,29.94,NNE,15,9.0,14.0,66,0.00,,,0.01,,2013-08-15 00:52:00,
2013-08-14 20:16:00,79.0,67.0,29.95,NNE,22,9.0,15.0,66,0.00,,,0.01,,2013-08-15 01:16:00,
2013-08-14 20:22:00,78.0,66.0,29.95,North,5,8.0,12.0,66,0.00,,,0.01,,2013-08-15 01:22:00,
2013-08-14 20:42:00,78.0,66.0,29.96,North,360,8.0,12.0,67,0.00,,,0.01,,2013-08-15 01:42:00,
2013-08-14 20:52:00,77.0,65.0,29.96,North,355,8.0,11.0,67,0.00,,,0.01,,2013-08-15 01:52:00,
2013-08-14 21:11:00,76.0,64.0,29.96,North,11,8.0,12.0,67,0.00,,,0.01,,2013-08-15 02:11:00,
2013-08-14 21:21:00,76.0,65.0,29.96,NNE,26,9.0,12.0,68,0.00,,,0.01,,2013-08-15 02:21:00,
2013-08-14 22:11:00,74.0,64.0,29.97,NNE,12,8.0,10.0,71,0.00,,,0.01,,2013-08-15 03:11:00,
2013-08-14 22:22:00,74.0,64.0,29.97,NNE,12,8.0,10.0,71,0.00,,,0.01,,2013-08-15 03:22:00,